YN7ZFC-13 Weather Reports


Display with metric or nautical units.
time (UTC)temp
F
wind
direction
speed
MPH
gust
MPH
rain 1hr
in
rain 24hr
in
rain mn
in
humidity
%
barometer
mb
20260507132640 79 100 11.0 0.0 0.00 0.00 0.00 70 1012.0
20260507131640 75 140 5.0 0.0 0.00 0.00 0.00 73 1012.0
20260507130639 75 140 5.0 0.0 0.00 0.00 0.00 73 1012.0
20260507125639 75 140 5.0 0.0 0.00 0.00 0.00 73 1012.0
20260507124638 75 140 5.0 0.0 0.00 0.00 0.00 73 1012.0
20260507123638 75 140 5.0 0.0 0.00 0.00 0.00 73 1012.0
20260507122638 75 140 5.0 0.0 0.00 0.00 0.00 73 1012.0
20260507121637 75 140 5.0 0.0 0.00 0.00 0.00 73 1012.0
20260507120637 75 140 5.0 0.0 0.00 0.00 0.00 73 1012.0
20260507115637 75 140 5.0 0.0 0.00 0.00 0.00 71 1012.0
20260507114636 75 140 5.0 0.0 0.00 0.00 0.00 69 1012.0
20260507113636 75 140 5.0 0.0 0.00 0.00 0.00 68 1012.0
20260507112637 75 140 5.0 0.0 0.00 0.00 0.00 66 1011.0
20260507111635 75 140 5.0 0.0 0.00 0.00 0.00 63 1011.0
20260507110635 75 140 5.0 0.0 0.00 0.00 0.00 63 1011.0
20260507105635 75 140 6.0 0.0 0.00 0.00 0.00 63 1011.0
20260507104634 75 140 6.0 0.0 0.00 0.00 0.00 63 1011.0
20260507103633 75 140 6.0 0.0 0.00 0.00 0.00 63 1011.0
20260507102633 75 140 6.0 0.0 0.00 0.00 0.00 63 1011.0
20260507101633 75 82 5.0 15.0 0.00 0.00 0.00 63 1011.0
20260507100633 75 82 5.0 15.0 0.00 0.00 0.00 63 1011.0
20260507095632 75 82 5.0 15.0 0.00 0.00 0.00 63 1011.0
20260507094632 75 82 5.0 15.0 0.00 0.00 0.00 63 1011.0
20260507093631 76 76 5.0 14.0 0.00 0.00 0.00 63 1011.0
20260507092631 77 76 5.0 14.0 0.00 0.00 0.00 63 1011.0
20260507091631 78 76 5.0 14.0 0.00 0.00 0.00 63 1011.0
20260507090630 78 76 5.0 14.0 0.00 0.00 0.00 63 1011.0
20260507085630 78 76 5.0 14.0 0.00 0.00 0.00 63 1011.0
20260507084630 78 76 5.0 14.0 0.00 0.00 0.00 63 1011.0
20260507083630 78 76 5.0 14.0 0.00 0.00 0.00 63 1011.0
20260507082629 78 76 5.0 14.0 0.00 0.00 0.00 63 1011.0
20260507081629 73 96 13.0 23.0 0.00 0.00 0.00 63 1011.0
20260507080628 74 96 13.0 23.0 0.00 0.00 0.00 63 1011.0
20260507075628 74 96 13.0 23.0 0.00 0.00 0.00 63 1011.0
20260507074628 75 96 13.0 23.0 0.00 0.00 0.00 63 1012.0
20260507073628 76 96 13.0 23.0 0.00 0.00 0.00 63 1012.0
20260507072627 77 96 13.0 23.0 0.00 0.00 0.00 63 1012.0
20260507071627 78 96 13.0 23.0 0.00 0.00 0.00 63 1012.0
20260507070626 77 96 13.0 23.0 0.00 0.00 0.00 63 1012.0
20260507065626 78 96 13.0 23.0 0.00 0.00 0.00 63 1012.0
20260507064626 79 96 13.0 23.0 0.00 0.00 0.00 63 1012.0
20260507063625 79 96 13.0 23.0 0.00 0.00 0.00 63 1012.0
20260507062625 80 96 13.0 23.0 0.00 0.00 0.00 63 1012.0
20260507061625 81 96 13.0 23.0 0.00 0.00 0.00 63 1012.0
20260507060625 82 96 13.0 23.0 0.00 0.00 0.00 63 1012.0
20260507055624 82 96 13.0 23.0 0.00 0.00 0.00 63 1012.0
20260507054624 82 96 13.0 23.0 0.00 0.00 0.00 63 1013.0
20260507053624 82 96 13.0 23.0 0.00 0.00 0.00 63 1013.0
20260507052623 83 96 13.0 23.0 0.00 0.00 0.00 63 1013.0
20260507051623 84 96 13.0 23.0 0.00 0.00 0.00 63 1013.0
20260507050623 84 96 13.0 23.0 0.00 0.00 0.00 63 1013.0
20260507045622 84 96 13.0 23.0 0.00 0.00 0.00 62 1013.0
20260507044622 84 96 13.0 23.0 0.00 0.00 0.00 60 1013.0
20260507043622 85 96 13.0 23.0 0.00 0.00 0.00 58 1013.0
20260507042621 85 96 13.0 23.0 0.00 0.00 0.00 57 1013.0
20260507041622 85 96 13.0 23.0 0.00 0.00 0.00 56 1013.0
20260507040621 85 96 13.0 23.0 0.00 0.00 0.00 54 1013.0
20260507035620 85 96 13.0 23.0 0.00 0.00 0.00 54 1013.0
20260507034620 85 96 13.0 23.0 0.00 0.00 0.00 53 1013.0
20260507033620 85 96 13.0 23.0 0.00 0.00 0.00 54 1013.0
20260507032619 85 96 13.0 23.0 0.00 0.00 0.00 54 1012.0
20260507031619 85 96 13.0 23.0 0.00 0.00 0.00 53 1012.0
20260507030619 85 96 13.0 23.0 0.00 0.00 0.00 51 1012.0
20260507025618 85 96 13.0 23.0 0.00 0.00 0.00 49 1012.0
20260507024618 85 96 13.0 23.0 0.00 0.00 0.00 48 1012.0
20260507023618 85 96 13.0 23.0 0.00 0.00 0.00 48 1012.0
20260507022617 85 96 13.0 23.0 0.00 0.00 0.00 46 1011.0
20260507021617 85 96 13.0 23.0 0.00 0.00 0.00 46 1011.0
20260507020616 86 96 13.0 23.0 0.00 0.00 0.00 46 1011.0
20260507015616 86 96 13.0 23.0 0.00 0.00 0.00 46 1011.0
20260507014616 86 96 13.0 23.0 0.00 0.00 0.00 46 1011.0
20260507013615 86 96 13.0 23.0 0.00 0.00 0.00 46 1011.0
20260507012615 86 96 13.0 23.0 0.00 0.00 0.00 46 1010.0
20260507011615 86 96 13.0 23.0 0.00 0.00 0.00 46 1010.0
20260507010614 86 96 13.0 23.0 0.00 0.00 0.00 46 1010.0
20260507005614 86 96 13.0 23.0 0.00 0.00 0.00 46 1010.0
20260507004614 80 96 13.0 23.0 0.00 0.00 0.00 46 1010.0
20260507003614 81 96 13.0 23.0 0.00 0.00 0.00 46 1010.0
20260507002613 82 96 13.0 23.0 0.00 0.00 0.00 46 1009.0
20260507001613 83 96 13.0 23.0 0.00 0.00 0.00 46 1009.0
20260507000613 83 96 13.0 23.0 0.00 0.00 0.00 46 1009.0
20260506235612 84 93 11.0 21.0 0.00 0.00 0.00 46 1009.0
20260506234612 85 93 12.0 22.0 0.00 0.00 0.00 46 1009.0
20260506233611 93 90 15.0 0.0 0.00 0.00 0.00 38 1009.0
20260506232611 93 90 15.0 0.0 0.00 0.00 0.00 38 1008.0
20260506231611 93 90 15.0 0.0 0.00 0.00 0.00 38 1008.0
20260506230610 93 90 15.0 0.0 0.00 0.00 0.00 38 1008.0
20260506225610 92 90 15.0 0.0 0.00 0.00 0.00 38 1008.0
20260506224610 91 90 15.0 0.0 0.00 0.00 0.00 38 1008.0
20260506223609 91 90 15.0 0.0 0.00 0.00 0.00 38 1008.0
20260506222609 91 90 15.0 0.0 0.00 0.00 0.00 38 1008.0
20260506221609 92 90 15.0 0.0 0.00 0.00 0.00 38 1008.0
20260506220608 92 90 15.0 0.0 0.00 0.00 0.00 38 1008.0
20260506215608 92 90 15.0 0.0 0.00 0.00 0.00 38 1008.0
20260506214607 92 90 15.0 0.0 0.00 0.00 0.00 38 1008.0
20260506213607 92 90 15.0 0.0 0.00 0.00 0.00 38 1008.0
20260506212606 92 90 15.0 0.0 0.00 0.00 0.00 38 1008.0
20260506211606 92 90 15.0 0.0 0.00 0.00 0.00 38 1008.0
20260506210605 92 90 15.0 0.0 0.00 0.00 0.00 39 1008.0
20260506205605 92 90 15.0 0.0 0.00 0.00 0.00 39 1008.0
20260506204604 92 90 15.0 0.0 0.00 0.00 0.00 39 1008.0
20260506203604 92 90 15.0 0.0 0.00 0.00 0.00 39 1008.0
20260506202604 92 90 15.0 0.0 0.00 0.00 0.00 39 1008.0
20260506201603 92 90 15.0 0.0 0.00 0.00 0.00 39 1008.0
20260506200603 92 90 15.0 0.0 0.00 0.00 0.00 39 1008.0
20260506195603 92 90 15.0 0.0 0.00 0.00 0.00 39 1008.0
20260506194602 92 90 15.0 0.0 0.00 0.00 0.00 40 1009.0
20260506193602 92 90 15.0 0.0 0.00 0.00 0.00 40 1009.0
20260506192602 92 90 15.0 0.0 0.00 0.00 0.00 41 1010.0
20260506191601 92 90 15.0 0.0 0.00 0.00 0.00 41 1010.0
20260506190601 92 90 15.0 0.0 0.00 0.00 0.00 41 1010.0
20260506185601 92 90 16.0 0.0 0.00 0.00 0.00 41 1010.0
20260506184601 92 90 16.0 0.0 0.00 0.00 0.00 42 1010.0
20260506183600 92 90 16.0 0.0 0.00 0.00 0.00 43 1010.0
20260506182600 92 90 16.0 0.0 0.00 0.00 0.00 44 1011.0
20260506181600 92 90 16.0 0.0 0.00 0.00 0.00 44 1011.0
20260506180600 92 90 16.0 0.0 0.00 0.00 0.00 43 1011.0
20260506175559 90 70 11.0 0.0 0.00 0.00 0.00 46 1011.0
20260506174559 91 70 11.0 0.0 0.00 0.00 0.00 46 1011.0
20260506173559 90 70 11.0 0.0 0.00 0.00 0.00 46 1011.0
20260506172558 90 70 11.0 0.0 0.00 0.00 0.00 46 1012.0
20260506171558 87 80 13.0 0.0 0.00 0.00 0.00 48 1012.0
20260506170558 88 80 13.0 0.0 0.00 0.00 0.00 48 1012.0
20260506165558 88 80 13.0 0.0 0.00 0.00 0.00 49 1012.0
20260506164557 89 80 13.0 0.0 0.00 0.00 0.00 49 1012.0
20260506163557 87 80 13.0 0.0 0.00 0.00 0.00 49 1012.0
20260506162557 88 80 13.0 0.0 0.00 0.00 0.00 49 1013.0
20260506161556 88 80 13.0 0.0 0.00 0.00 0.00 49 1013.0
20260506160556 89 80 13.0 0.0 0.00 0.00 0.00 49 1013.0
20260506155556 84 80 13.0 0.0 0.00 0.00 0.00 58 1013.0
20260506154555 85 80 13.0 0.0 0.00 0.00 0.00 58 1013.0
20260506153555 83 90 18.0 0.0 0.00 0.00 0.00 58 1013.0
20260506152555 84 90 18.0 0.0 0.00 0.00 0.00 58 1013.0
20260506151554 84 90 18.0 0.0 0.00 0.00 0.00 58 1013.0
20260506150544 84 90 18.0 0.0 0.00 0.00 0.00 58 1013.0
20260506145544 84 90 18.0 0.0 0.00 0.00 0.00 58 1013.0
20260506144544 85 90 18.0 0.0 0.00 0.00 0.00 58 1013.0
20260506143543 80 90 18.0 0.0 0.00 0.00 0.00 72 1013.0
20260506142543 81 90 18.0 0.0 0.00 0.00 0.00 72 1013.0
20260506141543 81 90 18.0 0.0 0.00 0.00 0.00 72 1013.0
20260506140542 81 110 9.0 0.0 0.00 0.00 0.00 72 1013.0
20260506135542 81 110 9.0 0.0 0.00 0.00 0.00 72 1013.0
20260506134542 81 110 9.0 0.0 0.00 0.00 0.00 72 1013.0
20260506133542 82 110 9.0 0.0 0.00 0.00 0.00 72 1012.0